Preview of NWS' New Version of Forecast
This preview is not operational and should not be used for support decisions.
Latest weather observations around

Houston Intercontinental Airport (KIAH)

Using International System of Units (Switch to English Units)
Date/ Time (CDT) Wind (kph) Vis. (km) Weather Sky Cond. Temp (°C) Rel. Humidity Wind Chill (°C) Heat Index (°C) Pressure Precip. (cm)
Air Dwpt 6 hour Altimeter (hPa) Sea level (hPa) 1 hr 3 hr 6 hr
Max Min
Jul 17 13:21 SSE 11 16.09 Thunderstorms BKN040 BKN100 BKN250 32 24     62%   38 1017.3        
Jul 17 13:04 SW 11 16.09 Thunderstorms BKN040 BKN250 33 23     54%   38 1017.6        
Jul 17 12:53 S 15 16.09 Mostly Cloudy BKN040 BKN250 33 23     54%   38 1017.6 1017.4      
Jul 17 11:53 SSE 17 16.09 Partly Cloudy SCT035 SCT250 34 23     54%   40 1018.3 1018      
Jul 17 10:53 SSW 13 16.09 Partly Cloudy SCT030 SCT250 32 23     59%   37 1018.3 1018.1      
Jul 17 09:53 S 15 16.09 Mostly Cloudy SCT020 BKN250 31 24     68%   37 1018.3 1018      
Jul 17 09:27 S 13 16.09 Mostly Cloudy SCT020 BKN250 31 24     70%   36 1018.3        
Jul 17 08:53 S 11 16.09 Mostly Cloudy BKN017 BKN250 30 26     77%   37 1018 1017.9      
Jul 17 07:53 S 13 11.27 Mostly Clear FEW016 FEW250 28 25     82%   33 1017.6 1017.4      
Jul 17 06:53 S 5 16.09 Partly Cloudy SCT016 27 24     87%   30 1017.3 1017.1      
Jul 17 05:53 Calm 16.09 Mostly Clear FEW014 27 24     87%   30 1016.9 1016.9      
Jul 17 04:53 S 8 16.09 Partly Cloudy SCT015 SCT025 27 25     88%   31 1016.6 1016.4      
Jul 17 04:44 S 9 16.09 Partly Cloudy SCT015 SCT025 27 25     88%   31 1016.6        
Jul 17 03:53 S 8 16.09 Mostly Cloudy SCT015 BKN023 27 24     87%   30 1016.6 1016.3      
Jul 17 03:43 S 8 16.09 Mostly Cloudy SCT013 BKN023 28 24     82%   32 1016.6        
Jul 17 02:53 S 9 16.09 Mostly Clear FEW015 28 24     82%   32 1016.3 1016.1      
Jul 17 01:53 S 11 16.09 Mostly Clear FEW015 FEW250 28 24     82%   32 1016.3 1016.2      
Jul 17 00:53 S 9 16.09 Clear   28 24     82%   32 1016.6 1016.4      
Jul 16 23:53 S 13 16.09 Partly Cloudy FEW020 FEW180 SCT250 28 24     77%   32 1016.6 1016.4      
Jul 16 22:53 S 11 16.09 Mostly Cloudy FEW025 FEW180 BKN250 28 24     77%   32 1016.9 1016.7      
Jul 16 21:53 S 11 16.09 Mostly Cloudy FEW027 FEW180 BKN250 29 23     70%   34 1016.3 1016      
Jul 16 20:53 S 11 16.09 Mostly Cloudy FEW030 SCT180 BKN250 29 23     68%   33 1015.2 1015.2      
Jul 16 17:53 S 26 16.09 Mostly Cloudy SCT045 SCT180 BKN250 33 23     57%   38 1014.9 1014.9      
Jul 16 16:53 SSE 22 16.09 Mostly Cloudy FEW042 SCT060 SCT180 BKN250 33 23     54%   38 1015.2 1015.2      
Jul 16 15:53 SSE 24 16.09 Mostly Cloudy FEW039 SCT060 BKN250 34 24     56%   40 1015.6 1015.4      
Jul 16 14:53   16.09 Mostly Cloudy BKN050 BKN250 36 23     49%   42 1015.6 1015.4      
Jul 16 13:53 SSE 22 16.09 Partly Cloudy SCT047 SCT250 35 23     49%   40 1016.3 1016.1      
Jul 16 12:53 SSE 21 16.09 Partly Cloudy SCT042 SCT250 34 23     51%   40 1016.9 1016.7      
Jul 16 11:53 SSW 15 16.09 Partly Cloudy SCT038 SCT250 34 23     54%   40 1016.9 1016.6      
Jul 16 10:53 S 18 16.09 Partly Cloudy SCT030 SCT250 33 24     60%   39 1016.9 1016.9      
Jul 16 09:53 S 21 16.09 Mostly Cloudy BKN022 32 25     68%   39 1016.6 1016.5      
Jul 16 08:53 S 15 16.09 Mostly Cloudy BKN016 30 26     77%   37 1016.6 1016.5      
Jul 16 08:33 S 15 11.27 Mostly Cloudy BKN015 29 26     80%   36 1016.6        
Jul 16 08:09 9 11.27 Mostly Cloudy BKN013 29 26     82%   35 1016.3        
Jul 16 07:53 S 11 11.27 Partly Cloudy SCT012 28 26     85%   34 1016.3 1016      
Jul 16 06:53 S 5 11.27 Partly Cloudy FEW014 SCT025 SCT250 28 26     88%   33 1015.9 1015.7      
Jul 16 05:53 S 8 16.09 Partly Cloudy FEW014 SCT026 27 26     91%   31 1015.6 1015.4      
Jul 16 04:53 S 9 16.09 Mostly Cloudy SCT014 BKN024 27 25     88%   31 1015.2 1015      
Jul 16 03:53 SSE 8 16.09 Mostly Cloudy FEW013 BKN020 27 25     88%   31 1014.9 1014.7      
Jul 16 03:17 SSE 8 16.09 Mostly Cloudy BKN018 28 25     85%   32 1014.6        
Jul 16 02:53 S 5 16.09 Partly Cloudy SCT018 27 24     85%   31 1014.6 1014.6      
Jul 16 01:53 S 11 16.09 Mostly Clear FEW018 28 24     82%   32 1014.6 1014.4      
Jul 16 00:53 S 9 16.09 Mostly Clear FEW020 FEW250 28 24     82%   32 1014.6 1014.5      
Jul 15 23:53 S 9 16.09 Clear   28 24     79%   33 1014.6 1014.2      
Jul 15 22:53 S 15 16.09 Mostly Cloudy FEW020 FEW180 BKN250 29 24     77%   34 1013.9 1013.9      
Jul 15 21:53 S 9 16.09 Mostly Cloudy FEW020 BKN250 29 24     77%   34 1013.6 1013.2      
Jul 15 20:53 S 15 16.09 Mostly Cloudy FEW028 FEW060 BKN250 29 24     72%   34 1013.2 1012.9      
Jul 15 19:53 S 11 16.09 Mostly Cloudy FEW040 SCT070 SCT190 BKN250 31 24     68%   36 1012.5 1012.2      
Jul 15 18:53 S 9 16.09 Mostly Cloudy FEW016 FEW038 SCT060 SCT190 BKN250 31 24     68%   36 1012.5 1012.2     0
Jul 15 18:43 S 13 16.09 Mostly Cloudy FEW017 FEW038 SCT060 SCT190 BKN250 30 24     70%   35 1012.5        
Jul 15 18:09   16.09 Thunderstorms FEW038 SCT060 SCT190 BKN250 31 24     68%   37 1012.5        
Jul 15 17:53   16.09 Mostly Cloudy FEW038 SCT060 SCT150 BKN250 31 24     68%   37 1012.2 1011.9      
Jul 15 16:53 ENE 21 16.09 Mostly Cloudy FEW035 SCT055 SCT110 BKN150 BKN250 31 24     68%   37 1012.5 1012.4      
Jul 15 15:53 ENE 21 16.09 Mostly Cloudy FEW032 FEW045 BKN110 BKN140 BKN250 29 24     74%   33 1012.9 1012.7 0 0  
Jul 15 15:22 SE 11 16.09 Mostly Cloudy FEW015 FEW040 BKN090 BKN140 BKN250 27 23     79%   29 1013.6        
Jul 15 14:53 NNE 13 16.09 Thunderstorms FEW015 FEW045 BKN090 BKN140 BKN250 26 22     79%   28 1013.9 1013.6      
Jul 15 13:53 SSW 11 16.09 Thunderstorms FEW015 SCT038 BKN080 BKN250 32 23     61%   37 1013.9 1013.8      
Jul 15 12:53 S 13 11.27 Thunderstorms SCT037 SCT070 BKN120 BKN250 33 23     54%   38 1013.9 1013.8     0
Jul 15 12:48 WSW 17 11.27 Thunderstorms SCT037 SCT070 BKN120 BKN250 33 23     56%   38 1013.9        
Jul 15 11:53 SSW 13 11.27 Mostly Cloudy FEW032 SCT065 BKN120 BKN250 33 23     56%   39 1014.2 1014      
Jul 15 10:53 WSW 17 11.27 Mostly Cloudy FEW032 BKN065 BKN120 BKN250 32 24     63%   37 1014.2 1014      
Jul 15 09:53 SW 17 11.27 Mostly Cloudy FEW022 FEW050 SCT065 BKN250 31 24     68%   36 1014.6 1014.4   0  
Jul 15 08:53 SW 15 9.66 Haze FEW020 BKN060 BKN100 BKN250 29 24     75%   35 1014.2 1013.9      
Jul 15 07:53 8 9.66 Haze FEW014 BKN060 BKN100 BKN250 28 26     85%   34 1013.6 1013.2 0    
Jul 15 06:53 WSW 13 12.87 Light Rain FEW014 BKN060 BKN080 BKN250 28 26     85%   34 1012.9 1012.7 0   0
Jul 15 05:53 SSW 17 12.87 Cloudy FEW015 BKN055 OVC090 28 25     82%   33 1012.9 1012.6 0    
Jul 15 04:53 SW 17 11.27 Cloudy FEW020 BKN050 BKN085 OVC250 29 25     80%   34 1012.2 1012      
Jul 15 04:25 WSW 11 11.27 Cloudy SCT016 BKN050 BKN080 OVC250 29 25     80%   34 1012.2        
Jul 15 03:53 SW 15 11.27 Cloudy BKN018 BKN080 OVC250 28 25     82%   33 1012.2 1011.9      
Jul 15 02:53 SW 11 11.27 Mostly Cloudy BKN017 BKN075 BKN250 28 25     82%   33 1011.9 1011.8      
Jul 15 01:53 SW 9 12.87 Mostly Cloudy BKN015 BKN055 BKN250 29 25     80%   34 1011.9 1011.7      
Jul 15 00:53 SW 13 12.87 Mostly Cloudy SCT017 BKN250 29 25     80%   34 1012.2 1011.9      
Jul 14 23:53 SSW 9 16.09 Mostly Cloudy FEW020 FEW040 SCT075 BKN250 29 24     74%   33 1012.2 1011.9      
Jul 14 22:53 WSW 5 16.09 Mostly Cloudy SCT046 BKN075 BKN250 29 23     70%   32 1011.9 1011.5      
Jul 14 21:53 SW 8 16.09 Mostly Cloudy SCT047 BKN075 BKN250 29 23     70%   34 1011.5 1011.3      
Jul 14 20:53 NNW 8 16.09 Mostly Cloudy FEW045 BKN070 BKN250 31 22     59%   34 1011.2 1010.9      
Jul 14 19:53 W 9 16.09 Mostly Cloudy FEW045 BKN075 BKN250 32 21     52%   34 1010.8 1010.7      
Jul 14 18:53 NW 11 16.09 Mostly Cloudy SCT048 SCT075 BKN250 32 22     54%   36 1010.5 1010.4      
Jul 14 17:53 NW 13 16.09 Mostly Cloudy SCT046 BKN070 BKN250 33 21     49%   37 1010.5 1010.2      
Jul 14 16:53 WNW 13 16.09 Mostly Cloudy SCT043 BKN065 BKN250 33 22     52%   37 1010.5 1010.4      
Jul 14 15:53 WNW 15 16.09 Mostly Cloudy FEW035 BKN060 BKN250 32 21     52%   35 1010.5 1010.5      
Jul 14 14:53 W 13 16.09 Mostly Cloudy SCT040 BKN055 BKN250 31 22     57%   34 1011.2 1010.9      
Jul 14 13:53 WNW 17 16.09 Mostly Cloudy SCT036 BKN050 BKN250 31 22     59%   34 1011.5 1011.2      
Jul 14 12:53 W 17 16.09 Mostly Cloudy SCT038 BKN050 BKN250 30 21     59%   33 1011.5 1011.4      
Jul 14 11:53 WNW 15 16.09 Mostly Cloudy BKN032 BKN250 29 21     61%   32 1011.9 1011.6      
Jul 14 11:17 WNW 13 16.09 Mostly Cloudy BKN032 BKN250 29 21     61%   32 1011.5        
Jul 14 10:53 WNW 13 16.09 Mostly Cloudy FEW026 SCT037 BKN160 BKN250 28 22     67%   31 1011.5 1011.3      
Jul 14 09:53 WNW 11 16.09 Mostly Cloudy FEW019 SCT038 BKN160 BKN250 28 22     72%   30 1011.5 1011.2      
Jul 14 09:16 WNW 13 16.09 Mostly Cloudy FEW016 SCT038 SCT160 BKN250 27 22     74%   30 1011.2        
Jul 14 08:53 W 15 16.09 Mostly Cloudy FEW014 SCT039 SCT160 BKN250 27 22     74%   30 1011.2 1011      
Jul 14 07:53 WNW 8 16.09 Mostly Cloudy FEW011 FEW040 SCT100 BKN250 26 23     82%   28 1010.5 1010.4      
Jul 14 06:53 WNW 9 16.09 Mostly Cloudy FEW011 FEW038 FEW100 BKN250 26 23     85%   26 1009.8 1009.9      
Jul 14 05:53 WNW 11 16.09 Mostly Cloudy FEW027 FEW038 SCT100 BKN250 26 23     85%   26 1009.5 1009.4      
Jul 14 05:11 WSW 8 16.09 Cloudy FEW027 BKN038 OVC100 26 23     82%   28 1009.5        
Jul 14 04:53 WSW 5 16.09 Cloudy BKN027 BKN038 OVC100 26 23     82%   28 1009.2 1009.1      
Jul 14 04:26 SW 8 16.09 Cloudy FEW015 BKN027 OVC100 26 23     85%   26 1008.8        
Jul 14 03:53 W 5 16.09 Cloudy FEW015 SCT027 BKN100 OVC250 26 23     85%   26 1008.1 1008      
Jul 14 02:53 W 8 16.09 Cloudy SCT033 SCT100 OVC250 26 22     82%   26 1007.8 1007.7      
Jul 14 01:53 W 5 16.09 Mostly Cloudy FEW100 BKN250 26 22     82%   26 1008.1 1008      
Jul 14 00:53 WNW 11 16.09 Mostly Cloudy FEW015 SCT050 BKN250 27 22     76%   29 1008.5 1008.3     0
Jul 13 23:53 N 8 16.09 Mostly Cloudy FEW015 BKN037 BKN055 BKN250 27 22     74%   30 1008.5 1008.4      
Jul 13 22:53 N 13 16.09 Cloudy FEW015 BKN037 OVC060 27 23     77%   30 1008.1 1008 0    
Jul 13 21:53 NNW 15 16.09 Mostly Cloudy FEW035 BKN060 BKN250 27 23     79%   30 1007.5 1007.1      
Jul 13 20:53 WNW 15 16.09 Mostly Cloudy FEW040 FEW065 SCT120 BKN250 28 24     79%   32 1006.8 1006.6      
Jul 13 19:53 WNW 9 16.09 Mostly Cloudy FEW040 BKN065 BKN110 BKN250 28 24     77%   32 1006.8 1006.5      
Jul 13 18:53 NW 15 16.09 Mostly Cloudy FEW015 FEW040 BKN065 BKN250 28 24     82%   32 1006.8 1006.4 1   1
Jul 13 18:28 WNW 11 11.27 Light Rain FEW010 SCT035 BKN060 BKN250 27 23     82%   29 1006.4   1    
Jul 13 18:14 NNW 18 4.83 Heavy Rain and Fog/Mist FEW005 SCT030 BKN060 BKN250 26 23     87%   26 1006.8   1    
Jul 13 18:03   2.01 Heavy Rain and Fog/Mist FEW005 BKN030 OVC060 26 24     90%   27 1007.5   0    
Jul 13 17:53   3.22 Rain FEW015 SCT030 BKN065 OVC250 27 24     82%   30 1006.8 1006.4 0    
Jul 13 16:53   16.09 Mostly Cloudy SCT038 BKN070 BKN250 33 23     56%   38 1006.1 1005.8      
Jul 13 15:53 N 18 16.09 Mostly Cloudy SCT040 SCT065 BKN250 33 23     54%   38 1006.4 1006.4   0  
Jul 13 14:53 NNW 24 16.09 Mostly Cloudy FEW033 SCT046 BKN060 BKN250 32 22     56%   36 1007.1 1006.9 0    
Jul 13 13:53 N 18 16.09 Cloudy SCT044 BKN055 OVC250 31 23     61%   35 1007.5 1007.2      
Jul 13 12:53   16.09 Mostly Cloudy SCT037 BKN055 BKN250 31 22     57%   34 1007.8 1007.5      
Jul 13 11:53   16.09 Mostly Cloudy SCT033 BKN046 BKN250 32 23     59%   36 1007.8 1007.7      
Jul 13 10:53   16.09 Mostly Cloudy SCT028 BKN250 31 23     63%   35 1008.1 1007.9      
Jul 13 09:53   16.09 Mostly Cloudy FEW023 FEW100 BKN250 31 23     63%   35 1007.5 1007.3      
Jul 13 08:53 NNW 26 16.09 Mostly Cloudy FEW025 FEW100 BKN250 29 23     70%   32 1007.8 1007.7      
Jul 13 07:53 NNW 18 16.09 Mostly Cloudy FEW020 FEW100 BKN250 28 23     74%   31 1007.8 1007.7      
Jul 13 06:53 NNW 15 16.09 Mostly Cloudy FEW016 FEW100 BKN250 27 23     79%   29 1007.5 1007.2      
Jul 13 05:53 NNW 17 16.09 Mostly Cloudy FEW110 BKN250 27 22     76%   29 1006.4 1006.4      
Jul 13 04:53 NNW 17 16.09 Cloudy FEW110 OVC250 27 22     74%   29 1006.1 1005.9      
Jul 13 03:53 NW 15 16.09 Cloudy FEW110 OVC250 27 22     72%   29 1006.1 1005.9      
Jul 13 02:53 NNW 15 16.09 Cloudy FEW110 OVC250 27 21     69%   29 1006.1 1006      
Jul 13 01:53 N 15 16.09 Cloudy FEW055 FEW110 OVC250 28 21     65%   30 1007.1 1006.8      
Jul 13 00:53 N 21 16.09 Cloudy FEW040 FEW055 FEW110 OVC250 29 19     57%   30 1007.1 1006.8      
Jul 12 23:53 NNW 18 16.09 Cloudy FEW040 SCT055 SCT080 OVC250 29 19     55%   31 1007.5 1007.4      
Jul 12 22:53   16.09 Mostly Cloudy FEW044 FEW090 BKN250 30 19     53%   32 1007.8 1007.7      
Jul 12 21:53 NNW 11 16.09 Mostly Cloudy FEW047 BKN250 30 19     53%   32 1007.1 1007      
Jul 12 21:40 NNW 13 16.09 Mostly Cloudy FEW047 BKN250 31 20     53%   33 1007.1        
Jul 12 20:53 NNW 18 16.09 Mostly Cloudy FEW055 BKN250 31 21     55%   33 1007.1 1007      
Jul 12 19:53 N 17 16.09 Mostly Cloudy FEW055 BKN250 32 21     50%   35 1006.4 1006.4      
Jul 12 18:53   16.09 Mostly Cloudy FEW055 BKN250 34 21     46%   37 1006.4 1006.1      
Jul 12 17:53   16.09 Mostly Cloudy FEW060 BKN250 34 20     43%   37 1006.4 1006.3      
Jul 12 16:53 N 21 16.09 Mostly Cloudy FEW060 BKN250 34 19     41%   37 1006.8 1006.5      
Jul 12 15:53   16.09 Mostly Cloudy FEW055 BKN250 36 20     40%   38 1007.1 1007      
Jul 12 14:53   16.09 Mostly Cloudy FEW055 BKN250 35 21     43%   38 1007.8 1007.6      
Jul 12 13:53 N 21 16.09 Mostly Cloudy FEW050 BKN250 35 21     44%   39 1008.5 1008.2      
Jul 12 12:53 N 21 16.09 Mostly Cloudy SCT040 BKN250 34 23     51%   40 1009.2 1008.8      
Jul 12 11:53 NNE 13 16.09 Mostly Cloudy FEW035 BKN250 33 23     56%   39 1009.5 1009.4      
Jul 12 10:53   16.09 Mostly Cloudy FEW033 BKN250 32 23     59%   37 1009.8 1009.7      
Jul 12 09:53 NNE 21 16.09 Mostly Cloudy FEW030 BKN250 31 23     63%   36 1009.8 1009.7      
Jul 12 08:53 NNE 15 16.09 Mostly Cloudy BKN250 30 23     67%   34 1010.2 1009.9      
Jul 12 07:53 N 9 16.09 Partly Cloudy FEW100 SCT250 28 23     74%   32 1009.8 1009.6      
Jul 12 06:53 N 11 16.09 Mostly Cloudy BKN250 27 23     79%   30 1009.2 1009      
Jul 12 05:53 N 13 16.09 Cloudy SCT040 OVC250 27 24     82%   30 1008.8 1008.8      
Jul 12 04:53 N 11 16.09 Cloudy OVC250 28 24     79%   32 1009.2 1008.8      
Jul 12 03:53 NNW 11 14.48 Cloudy OVC250 28 24     79%   32 1009.2 1009      
Jul 12 02:53 N 9 14.48 Mostly Cloudy BKN250 28 24     79%   33 1009.5 1009.3      
Jul 12 01:53 N 11 12.87 Mostly Cloudy BKN250 28 24     79%   33 1010.2 1009.8      
Jul 12 00:53 N 8 12.87 Mostly Cloudy BKN250 29 24     77%   34 1009.8 1009.7      
Jul 11 23:53 N 8 16.09 Mostly Cloudy FEW200 BKN250 29 24     75%   35 1009.8 1009.8      
Jul 11 22:53 N 8 16.09 Mostly Cloudy BKN250 30 25     75%   36 1010.5 1010.3      
Jul 11 21:53 N 9 16.09 Mostly Cloudy FEW045 BKN250 31 24     68%   37 1009.8 1009.7      
Jul 11 20:53 NNW 9 16.09 Mostly Cloudy FEW045 BKN250 32 24     62%   38 1009.2 1008.9      
Jul 11 19:53 8 16.09 Mostly Cloudy FEW045 BKN250 33 24     58%   40 1009.2 1008.9      
Jul 11 18:53 NNE 13 16.09 Mostly Cloudy FEW050 BKN250 34 24     56%   40 1009.2 1008.9      
Jul 11 17:53 N 13 16.09 Mostly Cloudy FEW050 BKN250 34 23     51%   40 1009.2 1009      
Jul 11 16:53 NNE 18 16.09 Mostly Cloudy FEW045 BKN250 35 23     49%   40 1009.8 1009.5      
Jul 11 15:53 NNE 18 16.09 Mostly Cloudy SCT043 BKN250 36 23     49%   42 1010.2 1010      
Jul 11 14:53   16.09 Mostly Cloudy SCT040 BKN250 36 24     51%   43 1011.2 1011      
Jul 11 13:53 N 11 16.09 Mostly Cloudy SCT036 BKN250 34 24     56%   42 1011.9 1011.8      
Jul 11 12:53 N 13 16.09 Partly Cloudy FEW035 SCT250 34 24     58%   41 1012.5 1012.5      
Jul 11 11:53 N 13 16.09 Mostly Clear FEW030 FEW250 33 24     60%   39 1013.2 1012.9      
Jul 11 10:53 5 16.09 Mostly Clear FEW200 FEW250 30 23     67%   34 1013.2 1013      
Jul 11 09:53 NNE 11 16.09 Partly Cloudy FEW200 SCT250 29 22     67%   32 1013.6 1013.4      
Jul 11 08:53 N 11 16.09 Partly Cloudy SCT200 SCT250 27 22     74%   29 1014.2 1013.9      
Jul 11 07:53 NNW 9 16.09 Mostly Cloudy BKN200 BKN250 26 22     79%   26 1014.2 1013.9      
Jul 11 06:53 NW 9 16.09 Mostly Cloudy BKN200 BKN250 25 22     84%   26 1013.2 1012.9      
Jul 11 05:53 NNW 5 16.09 Mostly Cloudy SCT200 BKN250 25 22     84%   26 1011.9 1011.8      
Jul 11 04:53 N 5 16.09 Mostly Cloudy FEW030 BKN250 26 22     82%   26 1011.9 1011.6      
Jul 11 03:53 NW 8 16.09 Mostly Cloudy FEW030 FEW100 SCT200 BKN250 27 22     74%   29 1011.9 1011.7      
Jul 11 01:53 W 5 16.09 Mostly Cloudy FEW030 SCT045 BKN250 28 23     74%   32 1013.6 1013.3      
Jul 11 00:53 WSW 8 16.09 Partly Cloudy FEW030 SCT200 SCT250 29 23     72%   33 1014.9 1014.6      
Jul 10 23:53 Calm 16.09 Partly Cloudy FEW040 SCT200 SCT250 28 26     85%   34 1014.2 1014      
Jul 10 22:53 SSE 8 16.09 Mostly Cloudy FEW050 BKN250 28 25     82%   33 1014.2 1013.9      
Jul 10 21:53 SE 8 16.09 Mostly Cloudy FEW050 BKN250 29 25     80%   34 1013.9 1013.6      
Jul 10 20:53 S 5 16.09 Mostly Cloudy FEW055 BKN250 29 26     80%   36 1013.2 1013.1      
Jul 10 19:53 S 11 16.09 Mostly Cloudy FEW055 BKN250 32 24     62%   38 1012.5 1012.3      
Jul 10 18:53 Calm 16.09 Mostly Cloudy FEW055 BKN250 34 22     48%   38 1012.2 1011.9      
Jul 10 16:53 ENE 8 16.09 Partly Cloudy SCT055 SCT250 36 22     43%   41 1013.6 1013.3      
Jul 10 14:53 Calm 16.09 Partly Cloudy SCT050 SCT250 34 22     48%   38 1014.9 1014.6      
Jul 10 13:53 WNW 9 16.09 Partly Cloudy SCT045 SCT250 34 22     51%   38 1015.6 1015.4      
Jul 10 12:53 Calm 16.09 Partly Cloudy SCT040 SCT250 33 22     52%   38 1015.9 1015.8      
Jul 10 11:53 W 9 16.09 Clear   32 23     59%   36 1016.3 1016      
Jul 10 09:53 Calm 16.09 Partly Cloudy SCT025 31 23     65%   35 1016.3 1016.1      
Jul 10 09:17 W 5 16.09 Mostly Cloudy BKN021 29 24     75%   35 1016.3        
Jul 10 08:53 5 16.09 Partly Cloudy SCT020 29 24     72%   34 1016.3 1016      
Jul 10 07:53 Calm 16.09 Mostly Clear FEW020 28 24     79%   33 1015.9 1015.7      
Jul 10 06:53 Calm 16.09 Mostly Clear FEW018 26 24     90%   27 1015.6 1015.3      
Jul 10 04:53 SSW 5 16.09 Clear CLR 27 24     85%   29 1014.2 1014      
Jul 10 03:53 Calm 16.09 Clear CLR 27 24     82%   30 1013.9 1013.8      
Jul 10 02:53 SSW 8 16.09 Mostly Clear FEW025 28 23     77%   31 1014.2 1014      
Jul 10 01:53 S 5 16.09 Mostly Clear FEW030 28 23     77%   31 1014.6 1014.3      
Jul 10 00:53 SSW 8 16.09 Mostly Clear FEW035 28 24     77%   32 1015.2 1015      
Jul 09 23:53 SSW 8 16.09 Mostly Clear FEW030 29 23     72%   33 1015.2 1015      
Jul 09 22:53 11 16.09 Mostly Clear FEW030 29 23     70%   34 1014.6 1014.5      
Jul 09 21:53 S 13 16.09 Mostly Clear FEW035 31 23     65%   35 1013.9 1013.6      
Jul 09 20:53 S 15 16.09 Mostly Clear FEW037 FEW250 32 23     61%   37 1012.9 1012.8      
Jul 09 19:53 ESE 15 16.09 Mostly Clear FEW040 FEW250 32 24     65%   38 1012.2 1012      
Jul 09 18:53 ESE 18 16.09 Mostly Clear FEW045 FEW250 33 23     56%   39 1012.2 1011.9      
Jul 09 17:53 S 13 16.09 Mostly Clear FEW055 34 23     53%   40 1012.2 1012.1      
Jul 09 16:53 SE 11 16.09 Mostly Clear FEW065 36 21     43%   39 1012.9 1012.7      
Jul 09 15:53 Calm 16.09 Mostly Clear FEW060 35 21     43%   38 1013.6 1013.3      
Jul 09 14:53 Calm 16.09 Partly Cloudy SCT055 34 21     46%   38 1013.9 1013.8      
Jul 09 13:53 S 8 16.09 Partly Cloudy SCT050 34 22     48%   38 1014.6 1014.4      
Jul 09 12:53 9 16.09 Partly Cloudy SCT040 33 22     52%   37 1014.9 1014.8      
Jul 09 11:53 SW 9 16.09 Partly Cloudy SCT035 32 23     58%   37 1015.2 1015.2      
Jul 09 09:53 SW 13 16.09 Partly Cloudy SCT023 31 26     75%   38 1015.9 1015.6      
Jul 09 08:53 SSW 13 16.09 Partly Cloudy SCT016 29 26     82%   36 1015.6 1015.4      
Jul 09 07:53 S 5 16.09 Mostly Clear FEW022 FEW200 28 26     90%   33 1014.9 1014.7      
Jul 09 06:53 Calm 16.09 Partly Cloudy SCT022 SCT200 27 26     97%   30 1014.2 1014      
Jul 09 05:53 SSW 5 16.09 Mostly Clear FEW020 FEW250 27 26     94%   30 1013.6 1013.5      
Jul 09 04:53 S 9 16.09 Mostly Clear FEW020 FEW250 27 26     97%   30 1013.2 1013.1      
Jul 09 04:31 S 5 16.09 Partly Cloudy SCT020 SCT250 27 26     94%   32 1013.6        
Jul 09 01:53 SSW 5 16.09 Partly Cloudy FEW020 SCT180 SCT250 27 26     94%   32 1013.9 1013.8      
Jul 08 23:53 SSW 9 16.09 Partly Cloudy FEW045 SCT250 28 26     90%   33 1013.9 1013.8      
Jul 08 22:53 SSW 8 16.09 Mostly Cloudy FEW055 SCT190 BKN250 27 26     94%   30 1013.6 1013.3      
Jul 08 21:53 SSE 11 16.09 Mostly Cloudy FEW044 SCT060 SCT120 BKN190 BKN250 25 25     100%   26 1012.9 1012.7 0 1  
Jul 08 21:42 SE 11 16.09 Light Rain FEW044 SCT060 SCT095 BKN190 BKN250 26 25     96%   27 1013.2   0    
Jul 08 21:19 9 16.09 Thunderstorms FEW020 SCT040 SCT095 BKN130 BKN180 BKN250 26 23     87%   26 1013.2   0    
Jul 08 20:53 Calm 14.48 Thunderstorms and Rain FEW020 SCT041 BKN095 BKN130 BKN250 24 24     97%   25 1013.6 1013.5 1    
Jul 08 20:43 Calm 8.05 Thunderstorms and Rain and Fog/Mist FEW020 SCT042 BKN100 BKN250 26 23     87%   26 1013.9   1    
Jul 08 20:15   16.09 Thunderstorms FEW018 SCT046 BKN100 BKN250 28 24     79%   32 1013.9        
Jul 08 19:53 NNW 13 16.09 Thunderstorms FEW046 SCT060 BKN090 BKN250 29 27     85%   37 1012.9 1012.6 0    
Jul 08 19:28 SE 13 16.09 Thunderstorms FEW044 SCT060 BKN095 BKN250 30 27     83%   38 1012.2   0    
Jul 08 19:03 SE 21 16.09 Thunderstorms and Rain FEW037 SCT050 BKN100 BKN250 30 27     83%   38 1012.2   0    
Jul 08 18:53 SSE 17 16.09 Thunderstorms and Rain FEW037 SCT055 BKN100 BKN250 31 26     77%   39 1012.2 1011.9 0   0
Jul 08 18:47 SSW 11 16.09 Thunderstorms and Heavy Rain FEW038 SCT055 BKN100 BKN250 31 26     75%   39 1011.9   0    
Jul 08 17:53 SSE 18 16.09 Mostly Cloudy SCT060 SCT100 BKN250 34 26     64%   44 1011.9 1011.8      
Jul 08 16:53   16.09 Mostly Cloudy SCT055 BKN250 34 26     60%   43 1012.2 1011.9      
Jul 08 14:53 SW 8 16.09 Mostly Cloudy BKN047 35 24     54%   42 1013.2 1013.1      
Jul 08 13:53 Calm 16.09 Mostly Cloudy BKN045 34 25     60%   42 1014.2 1013.9      
Jul 08 12:53 SSW 8 16.09 Partly Cloudy SCT040 34 25     60%   42 1014.6 1014.5      
Jul 08 11:53 5 16.09 Partly Cloudy SCT033 33 26     66%   41 1015.2 1015.2      
Jul 08 11:24 WNW 11 16.09 Partly Cloudy SCT030 32 25     66%   39 1015.6        
Jul 08 10:53 WSW 11 16.09 Mostly Cloudy BKN027 32 26     72%   40 1015.6 1015.4      
Jul 08 09:53 SSW 11 16.09 Mostly Cloudy BKN020 31 26     75%   39 1015.6 1015.5      
Jul 08 09:13 SW 11 16.09 Mostly Cloudy BKN018 29 26     85%   36 1015.9        
Jul 08 08:53 WSW 9 16.09 Partly Cloudy SCT015 29 26     82%   36 1015.6 1015.5      
Jul 08 07:53 Calm 16.09 Partly Cloudy SCT015 SCT250 28 26     90%   33 1015.2 1015.1      
Jul 08 06:53 Calm 16.09 Mostly Clear FEW015 FEW250 26 26     100%   27 1014.6 1014.5      
Jul 08 05:53 SSW 5 16.09 Mostly Clear FEW015 26 26     97%   29 1014.2 1014      
Jul 08 04:53 Calm 16.09 Mostly Clear FEW015 27 26     94%   32 1013.9 1013.6      
Jul 08 03:53 Calm 16.09 Mostly Clear FEW020 27 26     91%   31 1013.9 1013.7      
Jul 08 02:53 S 5 16.09 Mostly Clear FEW020 27 26     94%   32 1014.6 1014.3      
Jul 08 01:53 S 8 16.09 Clear CLR 28 26     90%   33 1014.9 1014.6      
Jul 08 00:53 S 9 16.09 Clear CLR 28 26     85%   34 1014.9 1014.8      
Jul 07 23:53 SSW 8 16.09 Mostly Clear FEW050 28 26     85%   34 1015.2 1015      
Jul 07 22:53 S 9 16.09 Mostly Clear FEW050 FEW250 29 25     80%   34 1014.9 1014.6      
Jul 07 21:53 S 9 16.09 Mostly Clear FEW040 FEW250 30 25     75%   36 1014.2 1014.1      
Jul 07 20:53 S 13 16.09 Partly Cloudy FEW040 SCT250 30 26     77%   37 1013.9 1013.6      
Jul 07 19:53 SSE 21 16.09 Clear   31 26     75%   39 1013.9 1013.6      
Jul 07 18:53 S 17 16.09 Clear   33 26     66%   41 1013.6 1013.5      
Jul 07 17:53 SSE 8 16.09 Partly Cloudy SCT055 SCT250 34 25     58%   43 1013.6 1013.4      
Jul 07 16:53 Calm 16.09 Partly Cloudy SCT050 SCT250 36 23     49%   42 1014.2 1014.1      
Jul 07 15:53 W 8 16.09 Partly Cloudy SCT050 SCT250 34 24     54%   41 1015.2 1014.9      
Jul 07 14:53 SSW 5 16.09 Mostly Cloudy SCT047 SCT060 BKN250 34 24     56%   42 1015.6 1015.4      
Jul 07 13:53 5 16.09 Mostly Cloudy SCT047 SCT060 BKN250 34 24     56%   40 1016.3 1016      
Jul 07 12:53 5 16.09 Mostly Cloudy SCT037 SCT180 BKN250 33 25     62%   41 1016.9 1016.7      
Jul 07 11:53 SSW 15 16.09 Mostly Cloudy SCT033 BKN250 32 24     62%   38 1017.6 1017.3      
Jul 07 10:53 W 11 16.09 Clear   32 24     65%   38 1018 1017.7      
Jul 07 08:53 SSW 8 16.09 Mostly Cloudy FEW013 SCT180 BKN250 28 26     88%   34 1018.3 1018.1      
Jul 07 07:53 Calm 16.09 Mostly Cloudy FEW020 SCT180 BKN250 27 26     94%   32 1018 1017.9      
Jul 07 06:53 Calm 16.09 Mostly Cloudy SCT180 BKN250 25 25     100%   26 1017.6 1017.5      
Jul 07 05:53 W 5 16.09 Mostly Cloudy SCT180 BKN250 26 25     96%   27 1017.3 1017.1      
Jul 07 04:53 Calm 16.09 Mostly Cloudy FEW180 BKN250 26 25     96%   27 1016.9 1016.6      
Jul 07 03:53 SSW 5 16.09 Mostly Cloudy BKN250 26 25     96%   27 1016.6 1016.5      
Jul 07 02:53 SSW 5 16.09 Partly Cloudy SCT250 27 25     90%   30 1016.6 1016.3      
Jul 07 01:53 SSW 9 16.09 Mostly Clear FEW250 27 25     90%   30 1016.9 1016.7      
Jul 07 00:53 S 9 16.09 Mostly Clear FEW250 28 25     85%   32 1016.9 1016.9      
Jul 06 23:53 S 9 16.09 Mostly Clear FEW040 FEW250 28 25     82%   33 1017.6 1017.5      
Jul 06 22:53 S 9 16.09 Mostly Clear FEW040 FEW250 29 24     75%   35 1017.3 1017.2      
Jul 06 21:53 S 13 16.09 Partly Cloudy FEW045 SCT250 29 26     80%   36 1017.6 1017.3      
Jul 06 20:53 SE 18 16.09 Partly Cloudy FEW047 SCT250 30 26     77%   37 1017.3 1016.9      
Jul 06 19:53 SE 17 16.09 Partly Cloudy FEW050 SCT250 32 27     75%   41 1016.6 1016.3      
Jul 06 18:53 S 9 16.09 Partly Cloudy FEW055 SCT250 34 23     51%   40 1015.6 1015.4      
Jul 06 17:53 S 11 16.09 Partly Cloudy FEW055 SCT250 35 23     49%   40 1015.6 1015.3      
Jul 06 16:53 SSE 13 16.09 Partly Cloudy SCT055 SCT250 35 23     51%   41 1016.3 1016.1      
Jul 06 15:53 SE 13 16.09 Partly Cloudy SCT050 SCT250 34 23     53%   40 1017.3 1017      
Jul 06 14:53 SW 8 16.09 Partly Cloudy FEW048 SCT250 34 23     53%   40 1018.3 1018.1      
Jul 06 13:53 ESE 11 16.09 Partly Cloudy FEW045 SCT250 34 23     52%   39 1019 1018.8      
Jul 06 12:53 SSE 5 16.09 Mostly Clear FEW038 FEW250 33 25     64%   40 1019.3 1019.2      
Jul 06 11:53 SSE 8 16.09 Mostly Clear FEW030 FEW250 32 25     66%   39 1019.7 1019.5      
Jul 06 10:53 Calm 16.09 Clear   31 26     73%   39 1019.7 1019.6      
Jul 06 09:53 WSW 8 16.09 Mostly Clear FEW020 29 25     77%   35 1019.3 1019.1      
Jul 06 08:53 WSW 9 16.09 Mostly Clear FEW025 28 26     85%   34 1019.3 1019.1      
Jul 06 07:53 Calm 16.09 Mostly Clear FEW020 FEW250 26 26     100%   29 1019.7 1019.3      
Jul 06 06:53 Calm 16.09 Mostly Clear FEW020 FEW200 FEW250 24 24     100%   25 1019 1018.9      
Jul 06 05:53 Calm 16.09 Partly Cloudy FEW020 SCT200 24 24     100%   26 1019 1018.9      
Jul 06 04:53 S 5 16.09 Partly Cloudy FEW020 SCT200 24 24     100%   26 1018.6 1018.4      
Jul 06 03:53 SSW 8 16.09 Mostly Clear FEW020 FEW250 26 25     96%   27 1018.3 1018      
Jul 06 02:53 S 5 16.09 Mostly Clear FEW020 26 25     94%   28 1018.3 1018.1      
Jul 06 01:53 SSE 5 16.09 Mostly Clear FEW020 26 25     96%   27 1018.3 1018.3      
Jul 06 00:53 S 5 16.09 Mostly Clear FEW020 26 25     96%   27 1019 1018.7      
Jul 05 23:53 S 9 16.09 Mostly Clear FEW020 FEW250 27 26     94%   30 1018.6 1018.5      
Jul 05 22:53 S 8 16.09 Mostly Clear FEW020 FEW250 28 25     85%   32 1018.3 1018.2      
Jul 05 21:53 S 9 16.09 Mostly Clear FEW250 28 25     85%   32 1017.6 1017.5      
Jul 05 20:53 S 11 16.09 Partly Cloudy SCT250 28 25     82%   33 1017.3 1017      
Jul 05 19:53 S 13 16.09 Partly Cloudy FEW045 FEW180 SCT250 31 24     68%   37 1016.6 1016.4      
Jul 05 18:53 S 13 16.09 Mostly Cloudy FEW047 FEW180 BKN250 33 24     61%   40 1015.9 1015.9      
Jul 05 17:53 SSE 15 16.09 Mostly Cloudy FEW050 FEW180 BKN250 33 25     62%   41 1016.3 1016.2      
Jul 05 16:53 SSE 18 16.09 Mostly Cloudy FEW050 FEW180 BKN250 34 22     49%   39 1016.9 1016.7      
Jul 05 15:53 SSE 18 16.09 Mostly Cloudy FEW050 SCT180 BKN250 35 23     51%   41 1017.3 1017.2      
Jul 05 14:53 SSE 11 16.09 Partly Cloudy FEW045 SCT180 SCT250 35 24     53%   42 1018 1017.8      
Jul 05 13:53 Calm 16.09 Partly Cloudy SCT040 SCT180 SCT250 33 24     58%   40 1018.6 1018.3      
Jul 05 12:53 SSW 9 16.09 Partly Cloudy SCT035 SCT180 SCT250 33 24     61%   40 1019 1018.8      
Jul 05 11:53 8 16.09 Mostly Cloudy SCT030 SCT160 BKN250 32 26     70%   40 1019.3 1019.1      
Jul 05 10:53 SSW 9 16.09 Mostly Cloudy SCT025 BKN160 BKN250 31 26     73%   39 1019 1018.9      
Jul 05 09:53 S 17 16.09 Mostly Cloudy SCT020 BKN160 BKN250 29 26     80%   36 1018.6 1018.6      
Jul 05 08:53 S 17 16.09 Partly Cloudy SCT015 SCT160 SCT250 29 26     85%   36 1018.6 1018.5      
Jul 05 07:53 S 9 16.09 Partly Cloudy FEW015 SCT160 SCT250 27 26     94%   32 1018 1017.8      
Jul 05 06:53 S 5 16.09 Partly Cloudy FEW016 SCT160 26 26     97%   29 1017.3 1017.3      
May 15 10:53 SW 8 16.09 Mostly Cloudy FEW030 BKN180 BKN250 28 20     61%   30 1015.6 1015.6      
May 15 05:53 Calm 11.27 Fog FEW008 FEW250 19 19     100%     1013.2 1013      
May 14 16:53   16.09 Mostly Cloudy FEW065 BKN250 32 20     49%   34 1012.9 1012.7      
May 11 14:53 S 21 16.09 Partly Cloudy SCT050 32 18     45%   33 1014.2 1014.1      
Jun 10 20:53 SE 24 16.09 Mostly Clear FEW035 26 21     74%   28 1012.2 1012.2      
Jun 09 22:53 S 5 16.09 Mostly Cloudy FEW050 SCT180 BKN250 24 18     71%   24 1012.9 1012.7      
Jun 09 06:53 Calm 16.09 Partly Cloudy FEW070 SCT250 21 18     87%     1012.9 1012.7      
Jun 08 18:53 NE 13 16.09 Mostly Clear FEW070 FEW250 30 16     42%   30 1011.2 1011.1      
Jun 06 09:53 NNW 11 16.09 Mostly Clear FEW020 27 23     77%   30 1008.5 1008.6      
Jun 06 06:53 WNW 5 16.09 Mostly Clear FEW020 FEW070 FEW250 23 22     94%   24 1008.1 1008      
Notice The following observation data may not be complete
Jun 05 18:23   0.8 Thunderstorms and Heavy Rain and Fog/Mist SCT024 SCT042 BKN070 BKN130 BKN250          %         0